Location: Dead Woman Crossing
(43.5369°N, 106.3228°W)
Time: 22:22:58
(UTC+00:00)

QB50P2 - Pass Details

Date: 28 June 2022
Orbit: 590 x 605 km, 97.9° (Epoch: 15 August)

Event Time Altitude Azimuth Distance (km) Brightness Sun altitude
Rises 07:37:45 0° 26° (NNE) 2,857 ? -22.9°
Reaches altitude 10° 07:40:19 10° 41° (NE) 1,951 ? -22.8°
Maximum altitude 07:43:41 23° 94° (E) 1,305 ? -22.7°
Enters shadow 07:44:16 22° 107° (ESE) 1,329 ? -22.7°
